Goldsboro, NC

12:50 PM EST on January 21, 2017 (GMT -0500)
Goldsboro

Weather History for KGSB - August, 2013

Change the Weather History Date:

Thursday, August 1, 2013

  Actual Average Record
Temperature  
Mean Temperature 78 °F -  
Max Temperature 82 °F 87 °F 100 °F (1999)
Min Temperature 73 °F 69 °F 62 °F (1997)
Cooling Degree Days 12    
Growing Degree Days 28 (Base 50)    
Moisture  
Dew Point 74 °F    
Average Humidity 94    
Maximum Humidity 100    
Minimum Humidity 70    
Precipitation  
Precipitation 0.48 in - - ()
Sea Level Pressure  
Sea Level Pressure 29.93 in    
Wind  
Wind Speed 5 mph (SSW)    
Max Wind Speed 12 mph    
Max Gust Speed -    
Visibility 9 miles    
Events Fog , Rain , Thunderstorm    
Averages and records for this station are not official NWS values.
T = Trace of Precipitation, MM = Missing Value Source: NWS Daily Summary

Daily Weather History Graph

Daily Weather History Graph

Search for Another Location

Airport or City:

Trip Planner

Search our weather history database for the weather conditions in past years. The results will help you decide how hot, cold, wet, or windy it might be!

Date:

Astronomy

Aug. 01, 2013 Rise Set
Actual Time 6:20 AM EDT 8:15 PM EDT
Civil Twilight 5:52 AM EDT 8:42 PM EDT
Nautical Twilight 5:18 AM EDT 9:16 PM EDT
Astronomical Twilight 4:42 AM EDT 9:52 PM EDT
Moon 1:56 AM EDT (8/1) 4:20 PM EDT (8/1)
Length of Visible Light 14h 50m
Length of Day
13h 54m
Waning Crescent, 23% of the Moon is Illuminated
Aug 1
Waning Crescent
Aug 6
New
Aug 14
First Quarter
Aug 20
Full
Aug 28
Last Quarter

Hourly Weather History & Observations

Time (EDT) Temp. Heat Index Dew Point Humidity Pressure Visibility Wind Dir Wind Speed Gust Speed Precip Events Conditions
12:58 AM 75.4 °F - 72.1 °F 90% 30.02 in 10.0 mi SSE 3.5 mph - N/A   Overcast
1:58 AM 75.0 °F - 72.9 °F 93% 30.00 in 10.0 mi SSE 3.5 mph - N/A   Overcast
2:58 AM 74.7 °F - 73.8 °F 97% 29.98 in 10.0 mi South 3.5 mph - N/A   Mostly Cloudy
3:58 AM 74.7 °F - 73.8 °F 97% 29.96 in 10.0 mi South 2.3 mph - N/A   Mostly Cloudy
4:58 AM 74.3 °F - 73.8 °F 98% 29.96 in 10.0 mi South 3.5 mph - N/A   Mostly Cloudy
5:58 AM 73.8 °F - 73.2 °F 98% 29.95 in 10.0 mi SSE 5.8 mph - N/A   Mostly Cloudy
6:58 AM 73.9 °F - 73.2 °F 98% 29.96 in 10.0 mi South 3.5 mph - N/A   Mostly Cloudy
7:40 AM 73.4 °F - 73.4 °F 100% 29.95 in 10.0 mi South 4.6 mph - N/A   Overcast
7:41 AM 73.4 °F - 73.4 °F 100% 29.95 in 10.0 mi South 4.6 mph - N/A Rain Light Rain
7:47 AM 75.2 °F - 73.4 °F 94% 29.95 in 10.0 mi SSE 4.6 mph - N/A Rain Light Rain
7:50 AM 75.2 °F - 73.4 °F 94% 29.95 in 10.0 mi Variable 3.5 mph - N/A   Overcast
7:58 AM 74.5 °F - 73.9 °F 98% 29.97 in 10.0 mi SSE 4.6 mph - 0.00 in   Overcast
8:01 AM 75.2 °F - 73.4 °F 94% 29.96 in 10.0 mi South 4.6 mph - N/A   Overcast
8:22 AM 75.2 °F - 73.4 °F 94% 29.95 in 9.0 mi SSE 4.6 mph - N/A Rain Light Rain
8:28 AM 75.2 °F - 73.4 °F 94% 29.95 in 9.0 mi SSE 4.6 mph - N/A Rain Light Rain
8:42 AM 75.2 °F - 75.2 °F 100% 29.95 in 10.0 mi Variable 3.5 mph - N/A   Overcast
8:57 AM 75.2 °F - 75.2 °F 100% 29.95 in 10.0 mi South 4.6 mph - N/A   Overcast
8:58 AM 75.2 °F - 74.7 °F 98% 29.96 in 10.0 mi South 4.6 mph - 0.00 in   Overcast
9:01 AM 75.2 °F - 75.2 °F 100% 29.95 in 9.0 mi South 3.5 mph - N/A   Overcast
9:03 AM 75.2 °F - 75.2 °F 100% 29.95 in 9.0 mi South 2.3 mph - N/A Rain Light Rain
9:06 AM 75.2 °F - 75.2 °F 100% 29.95 in 9.0 mi Variable 1.2 mph - N/A Rain Light Rain
9:09 AM 75.2 °F - 75.2 °F 100% 29.95 in 9.0 mi South 2.3 mph - N/A Rain Light Rain
9:12 AM 75.2 °F - 75.2 °F 100% 29.95 in 7.0 mi SSE 2.3 mph - N/A Rain Light Rain
9:15 AM 75.2 °F - 75.2 °F 100% 29.95 in 7.0 mi South 3.5 mph - N/A Rain Light Rain
9:24 AM 75.2 °F - 75.2 °F 100% 29.95 in 9.0 mi SW 2.3 mph - N/A Rain Light Rain
9:31 AM 75.2 °F - 75.2 °F 100% 29.95 in 10.0 mi SSW 2.3 mph - N/A   Overcast
9:49 AM 75.2 °F - 75.2 °F 100% 29.94 in 10.0 mi Variable 2.3 mph - N/A   Mostly Cloudy
9:52 AM 75.2 °F - 75.2 °F 100% 29.94 in 10.0 mi South 4.6 mph - N/A   Mostly Cloudy
9:55 AM 77.0 °F - 75.2 °F 94% 29.94 in 10.0 mi SSW 5.8 mph - N/A   Mostly Cloudy
9:58 AM 76.1 °F - 75.4 °F 98% 29.95 in 10.0 mi Variable 3.5 mph - 0.00 in   Mostly Cloudy
10:01 AM 77.0 °F - 75.2 °F 94% 29.94 in 10.0 mi South 5.8 mph - N/A   Mostly Cloudy
10:07 AM 77.0 °F - 75.2 °F 94% 29.94 in 10.0 mi South 6.9 mph - N/A   Mostly Cloudy
10:13 AM 77.0 °F - 75.2 °F 94% 29.94 in 10.0 mi SSW 5.8 mph - N/A   Mostly Cloudy
10:16 AM 75.2 °F - 75.2 °F 100% 29.94 in 10.0 mi SSW 5.8 mph - N/A   Overcast
10:19 AM 75.2 °F - 75.2 °F 100% 29.94 in 10.0 mi South 5.8 mph - N/A Rain Light Rain
10:25 AM 75.2 °F - 75.2 °F 100% 29.94 in 10.0 mi SSW 6.9 mph - N/A Rain Light Rain
10:26 AM 75.2 °F - 75.2 °F 100% 29.94 in 8.0 mi SSW 6.9 mph - N/A   Overcast
10:27 AM 75.2 °F - 75.2 °F 100% 29.94 in 6.0 mi SSW 6.9 mph - N/A Rain Light Rain
10:30 AM 75.2 °F - 75.2 °F 100% 29.94 in 2.5 mi South 5.8 mph - N/A Rain Rain
10:33 AM 75.2 °F - 75.2 °F 100% 29.94 in 2.0 mi SSW 6.9 mph - N/A Rain Light Rain
10:38 AM 75.2 °F - 75.2 °F 100% 29.94 in 1.8 mi SSW 5.8 mph - N/A Rain Light Rain
10:41 AM 75.2 °F - 75.2 °F 100% 29.94 in 2.5 mi Variable 5.8 mph - N/A Rain Light Rain
10:47 AM 75.2 °F - 75.2 °F 100% 29.94 in 2.5 mi Variable 4.6 mph - N/A Rain Light Rain
10:56 AM 75.2 °F - 75.2 °F 100% 29.94 in 2.0 mi WSW 11.5 mph - N/A Rain Light Rain
10:58 AM 75.2 °F - 73.4 °F 94% 29.95 in 1.2 mi SW 11.5 mph - 0.13 in Rain Light Rain
11:01 AM 73.4 °F - 73.4 °F 100% 29.94 in 2.0 mi SSW 6.9 mph - N/A Fog , Rain Heavy Rain
11:05 AM 73.4 °F - 73.4 °F 100% 29.94 in 0.5 mi South 6.9 mph - N/A Fog , Rain Heavy Rain
11:11 AM 73.4 °F - 71.6 °F 94% 29.94 in 3.0 mi South 4.6 mph - N/A Rain Light Rain
11:14 AM 73.4 °F - 71.6 °F 94% 29.94 in 5.0 mi South 3.5 mph - N/A Rain Light Rain
11:17 AM 73.4 °F - 73.4 °F 100% 29.94 in 9.0 mi South 2.3 mph - N/A Rain Light Rain
11:21 AM 73.4 °F - 73.4 °F 100% 29.94 in 10.0 mi Variable 3.5 mph - N/A   Mostly Cloudy
11:58 AM 76.1 °F - 75.4 °F 98% 29.94 in 10.0 mi South 5.8 mph - 0.33 in   Scattered Clouds
12:46 PM 77.0 °F - 75.2 °F 94% 29.92 in 10.0 mi SSE 5.8 mph - N/A   Mostly Cloudy
12:49 PM 77.0 °F - 75.2 °F 94% 29.92 in 10.0 mi SSE 4.6 mph - N/A   Mostly Cloudy
12:58 PM 78.4 °F - 74.5 °F 88% 29.93 in 10.0 mi SE 6.9 mph - 0.01 in   Mostly Cloudy
1:31 PM 80.6 °F 86.2 °F 75.2 °F 84% 29.91 in 10.0 mi South 6.9 mph - N/A   Mostly Cloudy
1:37 PM 80.6 °F 86.2 °F 75.2 °F 84% 29.91 in 10.0 mi SSW 6.9 mph - N/A   Mostly Cloudy
1:40 PM 80.6 °F 85.4 °F 73.4 °F 79% 29.90 in 10.0 mi SSW 8.1 mph - N/A   Mostly Cloudy
1:43 PM 80.6 °F 85.4 °F 73.4 °F 79% 29.91 in 10.0 mi SW 6.9 mph - N/A   Mostly Cloudy
1:58 PM 80.4 °F 84.4 °F 71.8 °F 75% 29.91 in 10.0 mi SW 11.5 mph - N/A   Mostly Cloudy
1:59 PM 80.6 °F 85.4 °F 73.4 °F 79% 29.91 in 10.0 mi SW 8.1 mph - N/A Rain Light Rain
2:05 PM 78.8 °F - 75.2 °F 89% 29.91 in 10.0 mi SW 5.8 mph - N/A Rain Light Rain
2:12 PM 78.8 °F - 75.2 °F 89% 29.90 in 10.0 mi SW 5.8 mph - N/A   Mostly Cloudy
2:58 PM 81.9 °F 86.8 °F 72.3 °F 73% 29.90 in 10.0 mi WSW 4.6 mph - 0.00 in   Scattered Clouds
3:23 PM 82.4 °F 87.2 °F 71.6 °F 70% 29.88 in 10.0 mi SW 6.9 mph - N/A Rain Light Rain
3:40 PM 80.6 °F 85.4 °F 73.4 °F 79% 29.88 in 10.0 mi NNW 1.2 mph - N/A   Mostly Cloudy
3:58 PM 80.6 °F 85.4 °F 73.6 °F 79% 29.89 in 10.0 mi West 3.5 mph - 0.01 in   Scattered Clouds
4:12 PM 80.6 °F 85.4 °F 73.4 °F 79% 29.88 in 10.0 mi SW 3.5 mph - N/A Thunderstorm Overcast
4:18 PM 80.6 °F 86.2 °F 75.2 °F 84% 29.88 in 10.0 mi WSW 6.9 mph - N/A Thunderstorm Thunderstorm
4:19 PM 80.6 °F 86.2 °F 75.2 °F 84% 29.88 in 10.0 mi WSW 5.8 mph - N/A Thunderstorm Thunderstorm
4:42 PM 78.8 °F - 75.2 °F 89% 29.88 in 10.0 mi South 10.4 mph - N/A Thunderstorm Overcast
4:44 PM 77.0 °F - 75.2 °F 94% 29.88 in 10.0 mi South 10.4 mph - N/A Rain Light Rain Showers
4:58 PM 77.0 °F - 73.4 °F 89% 29.89 in 10.0 mi South 5.8 mph - 0.00 in   Scattered Clouds
5:58 PM 80.6 °F 86.4 °F 75.6 °F 85% 29.88 in 10.0 mi SSW 10.4 mph - N/A   Clear
6:58 PM 80.1 °F 85.2 °F 75.6 °F 86% 29.88 in 10.0 mi SSW 8.1 mph - N/A   Partly Cloudy
7:58 PM 78.1 °F - 75.4 °F 91% 29.89 in 10.0 mi SSW 5.8 mph - N/A   Clear
8:58 PM 77.0 °F - 74.8 °F 93% 29.92 in 10.0 mi SSW 3.5 mph - N/A   Clear
9:58 PM 76.5 °F - 75.0 °F 95% 29.93 in 10.0 mi SSW 5.8 mph - N/A   Partly Cloudy
10:58 PM 76.5 °F - 75.0 °F 95% 29.93 in 10.0 mi SW 10.4 mph - N/A   Scattered Clouds
11:58 PM 75.7 °F - 74.8 °F 97% 29.94 in 10.0 mi WSW 5.8 mph - N/A   Clear